Location: Baller�as
(41.9020°N, 0.1554°W)
Time: 12:02:19
(UTC+00:00)

NOSS 3-2 (A) - Pass Details

Date: 10 August 2020
Orbit: 796 x 1412 km, 63.4° (Epoch: 16 September)

Event Time Altitude Azimuth Distance (km) Brightness Sun altitude
Rises 21:42:22 0° 230° (SW) 3,345 6.3 -24.0°
Reaches altitude 10° 21:44:45 10° 235° (SW) 2,458 5.6 -24.3°
Maximum altitude 21:50:16 53° 312° (NW) 1,106 4.1 -24.9°
Drops below altitude 10° 21:56:36 10° 29° (NNE) 2,803 6.2 -25.6°
Sets 21:59:29 0° 34° (NE) 3,857 6.9 -25.9°
